User: anonymous   Login
Location: Unspecified
(0.0000°N, 0.0000°E)
Time: 08:48:31
(UTC+00:00)
Language:

COSMOS 2463 - Orbit

View from above orbital plane
View from above orbital plane
View from above satellite
View from above satellite

Ground track
Ground track

The orbit data is extracted from the following two-line orbital elements,

1 36519U 10017A   19287.97442278 -.00000022 +00000-0 -41050-4 0  9993
2 36519 082.9590 239.9974 0037596 052.6472 307.8097 13.71437111473948
Epoch (UTC): 14 October 2019 23:23:10
Eccentricity: 0.0037596
inclination: 82.9590°
perigee height: 967 km
apogee height: 1022 km
right ascension of ascending node: 239.9974°
argument of perigee: 52.6472°
revolutions per day: 13.71437111
mean anomaly at epoch: 307.8097°
orbit number at epoch: 47394

The dashed part of the orbit path shows where the satellite is in the earth's shadow,  

DLR